FW4701 Weather Reports


Display with metric or nautical units.
time (UTC)temp
F
wind
direction
speed
MPH
gust
MPH
rain 1hr
in
rain 24hr
in
rain mn
in
humidity
%
barometer
mb
20260901012004 84 167 0.0 3.0 0.00 0.01 0.01 73 1015.8
20260901011509 84 159 0.0 2.0 0.00 0.01 0.01 73 1015.7
20260901011500 92 124 1.0 5.0 0.00 0.00 0.00 23 1013.0
20260901011004 84 184 0.0 2.0 0.00 0.01 0.01 73 1015.8
20260901010507 84 172 0.0 3.0 0.00 0.01 0.01 73 1015.8
20260901010058 94 108 2.0 6.0 0.00 0.00 0.00 21 1013.0
20260901010030 84 195 0.0 3.0 0.00 0.01 0.01 73 1015.7
20260901005508 84 126 0.0 3.0 0.00 0.01 0.01 73 1015.6
20260901005011 84 112 2.0 3.0 0.00 0.01 0.01 73 1015.6
20260901004555 95 120 3.0 7.0 0.00 0.00 0.00 20 1012.9
20260901004523 85 97 2.0 3.0 0.00 0.01 0.01 72 1015.6
20260901004011 85 107 1.0 2.0 0.00 0.01 0.01 72 1015.7
20260901003512 85 214 0.0 2.0 0.00 0.01 0.01 71 1015.8
20260901003053 96 134 4.0 11.0 0.00 0.00 0.00 19 1012.8
20260901003027 85 239 0.0 1.0 0.00 0.01 0.01 69 1015.8
20260901002512 86 250 0.0 1.0 0.00 0.01 0.01 69 1015.9
20260901002019 86 250 0.0 1.0 0.00 0.01 0.01 69 1016.0
20260901001557 96 108 7.0 12.0 0.00 0.00 0.00 18 1012.8
20260901001513 86 250 0.0 1.0 0.00 0.01 0.01 68 1016.1
20260901001003 86 250 0.0 2.0 0.00 0.01 0.01 67 1016.1
20260901000504 86 260 0.0 3.0 0.00 0.01 0.01 67 1015.9
20260901000051 97 107 7.0 12.0 0.00 0.00 0.00 18 1012.8
20260901000015 86 247 0.0 6.0 0.00 0.01 0.01 67 1015.7
20260831235508 87 209 1.0 6.0 0.00 0.01 0.01 67 1015.5
20260831235008 87 215 0.0 5.0 0.00 0.01 0.01 66 1015.3
20260831234604 97 114 5.0 10.0 0.00 0.00 0.00 18 1012.9
20260831234517 87 211 0.0 5.0 0.00 0.01 0.01 66 1015.3
20260831234009 87 207 1.0 6.0 0.00 0.01 0.01 66 1015.3
20260831233514 87 196 1.0 8.0 0.00 0.01 0.01 66 1015.3
20260831233048 98 129 5.0 10.0 0.00 0.00 0.00 17 1012.9
20260831233023 87 213 3.0 8.0 0.00 0.01 0.01 65 1015.3
20260831232513 88 171 0.0 7.0 0.00 0.01 0.01 65 1015.3
20260831232013 88 183 1.0 7.0 0.00 0.01 0.01 65 1015.3
20260831231542 99 101 9.0 14.0 0.00 0.00 0.00 17 1012.9
20260831231534 88 221 2.0 7.0 0.00 0.01 0.01 65 1015.2
20260831231016 88 210 2.0 7.0 0.00 0.01 0.01 64 1015.2
20260831230516 89 214 1.0 6.0 0.00 0.01 0.01 63 1015.2
20260831230039 101 153 0.0 5.0 0.00 0.00 0.00 17 1012.9
20260831230013 89 302 1.0 8.0 0.00 0.01 0.01 63 1015.0
20260831225505 89 171 3.0 10.0 0.00 0.01 0.01 62 1014.9
20260831225009 90 243 2.0 10.0 0.00 0.01 0.01 61 1014.7
20260831224537 101 117 4.0 9.0 0.00 0.00 0.00 17 1012.9
20260831224514 90 234 4.0 10.0 0.00 0.01 0.01 60 1014.7
20260831224008 91 184 2.0 10.0 0.00 0.01 0.01 61 1014.7
20260831223509 91 197 2.0 8.0 0.00 0.01 0.01 61 1014.7
20260831223033 100 155 1.0 7.0 0.00 0.00 0.00 19 1013.0
20260831223021 91 182 4.0 11.0 0.00 0.01 0.01 62 1014.6
20260831222514 91 206 3.0 13.0 0.00 0.01 0.01 61 1014.7
20260831221533 98 103 2.0 11.0 0.00 0.00 0.00 22 1013.0
20260831221014 92 142 3.0 10.0 0.00 0.01 0.01 60 1014.6
20260831220514 92 241 3.0 14.0 0.00 0.01 0.01 59 1014.6
20260831220027 96 138 5.0 12.0 0.00 0.00 0.00 21 1013.1
20260831215517 92 221 2.0 10.0 0.00 0.01 0.01 58 1014.5
20260831215005 92 198 4.0 12.0 0.00 0.01 0.01 56 1014.4
20260831214524 97 124 9.0 14.0 0.00 0.00 0.00 21 1013.1
20260831214512 93 240 3.0 15.0 0.00 0.01 0.01 56 1014.4
20260831214006 93 208 6.0 15.0 0.00 0.01 0.01 56 1014.4
20260831213509 93 166 7.0 15.0 0.00 0.01 0.01 57 1014.5
20260831213021 98 110 11.0 17.0 0.00 0.00 0.00 21 1013.3
20260831213017 93 183 6.0 13.0 0.00 0.01 0.01 57 1014.6
20260831212511 93 317 6.0 13.0 0.00 0.01 0.01 55 1014.5
20260831212012 93 207 3.0 12.0 0.00 0.01 0.01 56 1014.3
20260831211523 93 189 3.0 11.0 0.00 0.01 0.01 56 1014.3
20260831211520 98 101 8.0 16.0 0.00 0.00 0.00 20 1013.5
20260831211012 93 196 5.0 18.0 0.00 0.01 0.01 55 1014.3
20260831210515 93 173 8.0 20.0 0.00 0.01 0.01 54 1014.2
20260831210029 93 214 7.0 20.0 0.00 0.01 0.01 54 1014.2
20260831210019 98 111 5.0 16.0 0.00 0.00 0.00 21 1013.7
20260831205516 93 165 4.0 14.0 0.00 0.01 0.01 54 1014.2
20260831205016 93 180 7.0 15.0 0.00 0.01 0.01 53 1014.2
20260831204529 94 204 6.0 20.0 0.00 0.01 0.01 53 1014.3
20260831204519 98 91 11.0 16.0 0.00 0.00 0.00 20 1013.8
20260831204018 94 196 9.0 20.0 0.00 0.01 0.01 53 1014.3
20260831203506 94 247 5.0 17.0 0.00 0.01 0.01 53 1014.3
20260831203015 99 179 6.0 17.0 0.00 0.00 0.00 20 1014.2
20260831202507 94 205 5.0 18.0 0.00 0.01 0.01 54 1014.5
20260831202011 94 188 4.0 15.0 0.00 0.01 0.01 54 1014.5
20260831201525 94 232 4.0 15.0 0.00 0.01 0.01 52 1014.5
20260831201509 99 117 8.0 16.0 0.00 0.00 0.00 20 1014.3
20260831201016 94 229 5.0 12.0 0.00 0.01 0.01 54 1014.5
20260831200512 93 100 6.0 16.0 0.00 0.01 0.01 54 1014.6
20260831200028 93 208 5.0 16.0 0.00 0.01 0.01 53 1014.6
20260831200011 99 132 2.0 14.0 0.00 0.00 0.00 21 1014.4
20260831195513 93 266 7.0 22.0 0.00 0.01 0.01 52 1014.6
20260831195016 93 186 8.0 22.0 0.00 0.01 0.01 52 1014.8
20260831194558 93 188 8.0 20.0 0.00 0.01 0.01 53 1014.7
20260831194505 97 117 10.0 16.0 0.00 0.00 0.00 20 1014.6
20260831194019 93 251 6.0 16.0 0.00 0.01 0.01 53 1014.9
20260831193518 93 186 5.0 14.0 0.00 0.01 0.01 54 1014.9
20260831193032 92 200 8.0 18.0 0.00 0.01 0.01 54 1014.9
20260831193001 97 193 3.0 11.0 0.00 0.00 0.00 21 1014.7
20260831192507 92 203 6.0 19.0 0.00 0.01 0.01 54 1014.9
20260831192009 92 294 9.0 19.0 0.00 0.01 0.01 53 1015.1
20260831191559 99 99 7.0 18.0 0.00 0.00 0.00 21 1014.9
20260831191520 92 148 6.0 15.0 0.00 0.01 0.01 54 1015.2
20260831191011 92 178 5.0 18.0 0.00 0.01 0.01 56 1015.3
20260831190512 92 196 6.0 18.0 0.00 0.01 0.01 56 1015.4
20260831190056 98 137 1.0 12.0 0.00 0.00 0.00 23 1015.0
20260831190023 92 234 9.0 21.0 0.00 0.01 0.01 55 1015.4
20260831185514 91 188 3.0 21.0 0.00 0.01 0.01 55 1015.4
20260831185015 91 305 7.0 16.0 0.00 0.01 0.01 56 1015.3
20260831184554 99 124 6.0 17.0 0.00 0.00 0.00 24 1015.1
20260831184541 91 244 7.0 15.0 0.00 0.01 0.01 55 1015.5
20260831184015 91 200 5.0 15.0 0.00 0.01 0.01 56 1015.7
20260831183517 91 168 5.0 17.0 0.00 0.01 0.01 58 1015.8
20260831183052 98 156 3.0 14.0 0.00 0.00 0.00 25 1015.3
20260831183030 90 214 5.0 17.0 0.00 0.01 0.01 57 1015.9
20260831182517 90 204 5.0 15.0 0.00 0.01 0.01 57 1016.0
20260831182015 90 213 5.0 16.0 0.00 0.01 0.01 57 1015.9
20260831181553 98 122 3.0 12.0 0.00 0.00 0.00 23 1015.5
20260831181535 90 178 6.0 16.0 0.00 0.01 0.01 57 1015.9
20260831181007 90 223 6.0 12.0 0.00 0.01 0.01 59 1016.0
20260831180510 90 209 5.0 14.0 0.00 0.01 0.01 58 1016.3
20260831180052 96 111 9.0 17.0 0.00 0.00 0.00 25 1015.7
20260831180024 90 267 4.0 14.0 0.00 0.01 0.01 58 1016.4
20260831175511 89 199 3.0 15.0 0.00 0.01 0.01 58 1016.5
20260831175012 89 200 4.0 15.0 0.00 0.01 0.01 56 1016.5
20260831174545 97 156 4.0 11.0 0.00 0.00 0.00 26 1016.2
20260831174543 89 261 5.0 11.0 0.00 0.01 0.01 58 1016.5
20260831174017 89 190 4.0 14.0 0.00 0.01 0.01 60 1016.7
20260831173514 88 228 5.0 14.0 0.00 0.01 0.01 60 1016.7
20260831173042 100 150 0.0 4.0 0.00 0.00 0.00 25 1016.5
20260831173029 88 227 4.0 12.0 0.00 0.01 0.01 60 1016.7
20260831172516 88 173 6.0 12.0 0.00 0.01 0.01 61 1016.7
20260831172017 88 215 4.0 10.0 0.00 0.01 0.01 61 1016.8
20260831171541 88 218 4.0 10.0 0.00 0.01 0.01 59 1017.0
20260831171535 98 219 0.0 6.0 0.00 0.00 0.00 28 1016.6
20260831171018 88 190 2.0 10.0 0.00 0.01 0.01 61 1017.1
20260831170520 88 200 4.0 10.0 0.00 0.01 0.01 60 1017.1
20260831170045 88 267 6.0 10.0 0.00 0.01 0.01 59 1017.2
20260831170037 97 164 2.0 13.0 0.00 0.00 0.00 27 1016.9
20260831165513 87 166 4.0 9.0 0.00 0.01 0.01 61 1017.3
20260831165014 87 205 3.0 8.0 0.00 0.01 0.01 61 1017.3
20260831164532 86 189 3.0 8.0 0.00 0.01 0.01 61 1017.4
20260831164013 86 174 2.0 8.0 0.00 0.01 0.01 63 1017.4
20260831163514 85 145 2.0 6.0 0.00 0.01 0.01 62 1017.4
20260831163031 95 114 1.0 9.0 0.00 0.00 0.00 31 1016.7
20260831162515 85 269 4.0 10.0 0.00 0.01 0.01 62 1017.4
20260831162016 85 171 3.0 12.0 0.00 0.01 0.01 62 1017.4
20260831161531 85 163 5.0 12.0 0.00 0.01 0.01 63 1017.5
20260831161527 94 120 1.0 11.0 0.00 0.00 0.00 32 1016.8
20260831161015 84 182 4.0 9.0 0.00 0.01 0.01 65 1017.5
20260831160518 84 259 3.0 10.0 0.00 0.01 0.01 64 1017.5
20260831160036 84 275 1.0 11.0 0.00 0.01 0.01 65 1017.5
20260831160023 96 113 0.0 5.0 0.00 0.00 0.00 33 1016.7
20260831155518 83 230 2.0 11.0 0.00 0.01 0.01 68 1017.4
20260831155014 83 185 3.0 8.0 0.00 0.01 0.01 67 1017.5
20260831154556 83 211 3.0 11.0 0.00 0.01 0.01 67 1017.5
20260831154517 95 155 0.0 2.0 0.00 0.00 0.00 33 1016.7
20260831154012 82 192 4.0 11.0 0.00 0.01 0.01 67 1017.4
20260831153510 81 183 3.0 8.0 0.00 0.01 0.01 70 1017.4
20260831153015 93 223 0.0 2.0 0.00 0.00 0.00 37 1016.6
20260831153008 81 198 2.0 8.0 0.00 0.01 0.01 69 1017.4
20260831152504 80 242 2.0 8.0 0.00 0.01 0.01 70 1017.4
20260831152008 80 181 2.0 8.0 0.00 0.01 0.01 71 1017.4
20260831151510 91 205 0.0 3.0 0.00 0.00 0.00 40 1016.6
20260831151007 79 84 1.0 8.0 0.00 0.01 0.01 72 1017.4
20260831150504 79 132 4.0 8.0 0.00 0.01 0.01 72 1017.4
20260831150010 79 141 0.0 5.0 0.00 0.01 0.01 72 1017.3
20260831150002 89 221 0.0 4.0 0.00 0.00 0.00 44 1016.6
20260831145507 78 269 1.0 5.0 0.00 0.01 0.01 75 1017.2
20260831145009 78 192 2.0 5.0 0.00 0.01 0.01 75 1017.4
20260831144558 89 224 0.0 2.0 0.00 0.00 0.00 46 1016.4
20260831144526 77 178 2.0 6.0 0.00 0.01 0.01 75 1017.4
20260831144011 77 185 3.0 7.0 0.00 0.01 0.01 75 1017.4
20260831143511 76 132 1.0 7.0 0.00 0.01 0.01 75 1017.4
20260831143111 87 221 0.0 2.0 0.00 0.00 0.00 49 1016.5
20260831143024 76 160 4.0 7.0 0.00 0.01 0.01 75 1017.4
20260831142515 76 182 1.0 6.0 0.00 0.02 0.01 76 1017.2
20260831142004 76 200 2.0 5.0 0.00 0.02 0.01 76 1017.2
20260831141601 87 221 0.0 3.0 0.00 0.00 0.00 48 1016.7
20260831141511 76 192 2.0 6.0 0.00 0.02 0.01 76 1017.2
20260831141003 75 159 1.0 6.0 0.00 0.02 0.01 77 1017.1
20260831140506 75 198 2.0 7.0 0.00 0.02 0.01 77 1017.1
20260831140051 88 216 0.0 2.0 0.00 0.00 0.00 48 1016.7
20260831140022 75 134 1.0 7.0 0.00 0.02 0.01 76 1017.1
20260831135504 75 217 2.0 8.0 0.00 0.02 0.01 76 1017.1
20260831135007 75 169 2.0 8.0 0.00 0.02 0.01 77 1017.1
20260831134546 86 149 0.0 0.0 0.00 0.00 0.00 51 1016.5
20260831134516 75 185 2.0 6.0 0.00 0.02 0.01 77 1017.0
20260831134009 75 173 2.0 7.0 0.00 0.02 0.01 79 1017.1
20260831133518 74 177 2.0 7.0 0.00 0.02 0.01 79 1017.2
20260831133039 82 151 0.0 1.0 0.00 0.00 0.00 55 1016.4
20260831133026 73 207 4.0 7.0 0.00 0.02 0.01 81 1017.1
20260831132516 73 229 3.0 7.0 0.00 0.02 0.01 81 1016.9
20260831132014 73 191 2.0 9.0 0.00 0.02 0.01 81 1016.8
20260831131537 80 103 0.0 5.0 0.00 0.00 0.00 56 1016.4
20260831131528 72 202 2.0 9.0 0.00 0.02 0.01 81 1016.8
20260831131006 72 138 2.0 6.0 0.00 0.02 0.01 81 1016.8
20260831130503 72 241 2.0 6.0 0.00 0.02 0.01 82 1016.8
20260831130036 79 107 0.0 1.0 0.00 0.00 0.00 56 1016.1
20260831130009 72 235 2.0 6.0 0.00 0.02 0.01 82 1016.7
20260831125508 72 173 3.0 6.0 0.00 0.02 0.01 82 1016.7
20260831125007 72 173 2.0 6.0 0.00 0.02 0.01 82 1016.7
20260831124527 0 0.0 0.0 0.00 0.00 0.00 1015.6
20260831124512 72 215 3.0 6.0 0.00 0.02 0.01 82 1016.7
20260831124009 72 185 3.0 6.0 0.00 0.02 0.01 82 1016.8
20260831123510 72 211 2.0 9.0 0.00 0.02 0.01 82 1016.7
20260831123024 0 0.0 0.0 0.00 0.00 0.00 1015.5
20260831123018 72 236 2.0 10.0 0.00 0.02 0.01 82 1016.6
20260831122511 72 218 3.0 10.0 0.00 0.02 0.01 82 1016.6
20260831122011 72 175 4.0 6.0 0.00 0.02 0.01 83 1016.6
20260831121526 72 202 2.0 7.0 0.00 0.02 0.01 83 1016.5
20260831121516 0 0.0 0.0 0.00 0.00 0.00 1015.4
20260831121013 72 196 3.0 7.0 0.00 0.02 0.01 82 1016.6
20260831120515 72 196 2.0 7.0 0.00 0.02 0.01 82 1016.6
20260831120031 72 249 1.0 5.0 0.00 0.02 0.01 82 1016.5
20260831120012 0 0.0 0.0 0.00 0.00 0.00 1015.1
20260831115503 72 191 3.0 8.0 0.00 0.02 0.01 82 1016.4
20260831115006 72 225 3.0 8.0 0.00 0.02 0.01 82 1016.3
20260831114513 72 199 2.0 8.0 0.00 0.02 0.01 82 1016.3
20260831114507 0 0.0 0.0 0.00 0.00 0.00 1014.9
20260831114004 72 219 3.0 9.0 0.00 0.02 0.01 82 1016.2
20260831113506 72 183 4.0 9.0 0.00 0.02 0.01 82 1016.3
20260831113101 0 0.0 0.0 0.00 0.00 0.00 1014.8
20260831113015 72 205 3.0 8.0 0.00 0.02 0.01 82 1016.2
20260831112510 72 269 4.0 8.0 0.00 0.02 0.01 82 1016.2
20260831112011 72 215 4.0 10.0 0.00 0.02 0.01 82 1016.2
20260831111557 0 0.0 0.0 0.00 0.00 0.00 1014.7
20260831111530 72 205 4.0 10.0 0.00 0.02 0.01 82 1016.2
20260831111015 72 196 4.0 12.0 0.00 0.02 0.01 82 1016.2
20260831110513 72 186 4.0 12.0 0.00 0.02 0.01 82 1016.2
20260831110059 0 0.0 0.0 0.00 0.00 0.00 1014.6
20260831110027 72 190 3.0 9.0 0.00 0.02 0.01 82 1016.2
20260831105512 72 190 4.0 11.0 0.00 0.02 0.01 82 1016.1
20260831105016 72 202 4.0 11.0 0.00 0.02 0.01 82 1016.1
20260831104545 0 133 0.0 3.0 0.00 0.00 0.00 1014.6
20260831104509 72 185 4.0 10.0 0.00 0.02 0.01 82 1016.1
20260831104005 72 171 4.0 10.0 0.00 0.02 0.01 82 1016.1
20260831103508 72 196 4.0 15.0 0.00 0.02 0.01 81 1016.1
20260831103042 78 136 0.0 4.0 0.00 0.00 0.00 56 1014.7
20260831103035 72 205 4.0 15.0 0.00 0.02 0.01 81 1016.0
20260831102506 72 185 4.0 10.0 0.00 0.02 0.01 82 1016.0
20260831102008 72 222 4.0 8.0 0.00 0.02 0.01 82 1015.9
20260831101544 78 127 0.0 4.0 0.00 0.00 0.00 55 1014.5
20260831101520 72 220 3.0 8.0 0.00 0.02 0.01 82 1015.9
20260831101012 72 213 3.0 10.0 0.00 0.02 0.01 82 1015.8
20260831100514 72 182 4.0 10.0 0.00 0.02 0.01 82 1015.8
20260831100035 72 185 3.0 7.0 0.00 0.02 0.01 82 1015.8
20260831095513 72 194 3.0 9.0 0.00 0.02 0.01 82 1015.8
20260831095016 72 214 4.0 9.0 0.01 0.02 0.01 82 1015.9
20260831094538 79 120 4.0 7.0 0.00 0.00 0.00 54 1014.4
20260831094532 72 182 3.0 7.0 0.01 0.02 0.01 82 1015.9
20260831094016 72 239 3.0 8.0 0.01 0.02 0.01 82 1016.0
20260831093516 72 173 3.0 9.0 0.01 0.02 0.01 81 1016.1
20260831093029 80 127 1.0 8.0 0.00 0.00 0.00 54 1014.4
20260831093011 72 207 3.0 9.0 0.01 0.02 0.01 81 1016.1
20260831092506 72 182 3.0 8.0 0.01 0.02 0.01 81 1016.2
20260831092007 72 192 3.0 9.0 0.01 0.02 0.01 81 1016.3
20260831091536 80 127 4.0 6.0 0.00 0.00 0.00 53 1014.4
20260831091517 73 169 5.0 9.0 0.01 0.02 0.01 81 1016.3
20260831091008 73 164 3.0 9.0 0.01 0.02 0.01 80 1016.3
20260831090515 73 189 3.0 7.0 0.01 0.02 0.01 81 1016.3
20260831090023 73 189 3.0 7.0 0.01 0.02 0.01 81 1016.3
20260831085514 73 211 2.0 8.0 0.01 0.02 0.01 81 1016.3
20260831085018 73 195 4.0 8.0 0.00 0.01 0.00 80 1016.3
20260831084526 73 229 4.0 8.0 0.00 0.01 0.00 80 1016.2
20260831084522 80 114 3.0 5.0 0.00 0.00 0.00 52 1014.2
20260831084015 73 194 2.0 8.0 0.00 0.01 0.00 80 1016.3
20260831083515 73 198 3.0 10.0 0.00 0.01 0.00 80 1016.3
20260831083030 73 188 3.0 10.0 0.00 0.01 0.00 80 1016.3
20260831083018 81 117 2.0 7.0 0.00 0.00 0.00 51 1014.2
20260831082518 73 166 2.0 9.0 0.00 0.01 0.00 80 1016.2
20260831082009 73 217 4.0 9.0 0.00 0.01 0.00 80 1016.3
20260831081514 80 119 4.0 6.0 0.00 0.00 0.00 51 1014.3
20260831081009 73 211 2.0 7.0 0.00 0.01 0.00 80 1016.2
20260831080514 73 199 2.0 5.0 0.00 0.01 0.00 80 1016.1
20260831080040 74 195 1.0 5.0 0.00 0.01 0.00 80 1016.1
20260831080012 80 113 3.0 5.0 0.00 0.00 0.00 50 1014.3
20260831075512 74 205 0.0 5.0 0.00 0.01 0.00 80 1016.1
20260831075012 74 198 0.0 4.0 0.00 0.01 0.00 79 1016.1
20260831074528 74 242 1.0 7.0 0.00 0.01 0.00 78 1016.1
20260831074510 81 128 2.0 5.0 0.00 0.00 0.00 49 1014.2
20260831074013 75 221 3.0 7.0 0.00 0.01 0.00 77 1016.0
20260831073516 75 209 2.0 10.0 0.00 0.01 0.00 77 1016.1
20260831073033 75 204 5.0 10.0 0.00 0.01 0.00 75 1016.1
20260831073008 81 127 1.0 4.0 0.00 0.00 0.00 48 1014.3
20260831072517 75 225 3.0 9.0 0.00 0.01 0.00 76 1016.1
20260831072020 75 223 2.0 9.0 0.00 0.01 0.00 76 1016.1
20260831071531 75 184 2.0 7.0 0.00 0.01 0.00 76 1016.1
20260831071503 81 116 0.0 7.0 0.00 0.00 0.00 47 1014.5
20260831071003 75 186 3.0 8.0 0.00 0.01 0.00 77 1016.1
20260831070508 75 169 3.0 10.0 0.00 0.01 0.00 77 1016.1
20260831070019 75 180 4.0 10.0 0.00 0.01 0.00 77 1016.1
20260831070002 82 124 1.0 6.0 0.00 0.00 0.00 46 1014.5
20260831065512 75 191 3.0 9.0 0.00 0.01 0.00 77 1016.2
20260831065011 75 197 4.0 10.0 0.00 0.01 0.00 77 1016.1
20260831064608 82 114 3.0 5.0 0.00 0.00 0.00 45 1014.5
20260831064523 75 188 4.0 10.0 0.00 0.01 0.00 78 1016.1
20260831064014 75 217 4.0 10.0 0.00 0.01 0.00 78 1016.1
20260831063503 75 157 5.0 10.0 0.00 0.01 0.00 77 1016.0
20260831063056 82 126 0.0 1.0 0.00 0.00 0.00 44 1014.4
20260831063005 75 173 5.0 11.0 0.00 0.01 0.00 77 1016.1
20260831062504 75 190 4.0 11.0 0.00 0.01 0.00 77 1016.0
20260831062006 75 192 2.0 10.0 0.00 0.01 0.00 78 1016.0
20260831061554 82 121 0.0 0.0 0.00 0.00 0.00 44 1014.4
20260831061509 75 204 5.0 10.0 0.00 0.01 0.00 78 1015.9
20260831061006 75 214 5.0 9.0 0.00 0.01 0.00 79 1016.0
20260831060507 74 184 4.0 10.0 0.00 0.01 0.00 80 1016.1
20260831060051 82 120 0.0 2.0 0.00 0.00 0.00 42 1014.5
20260831060013 74 233 4.0 10.0 0.00 0.01 0.00 81 1016.1
20260831055508 74 202 4.0 14.0 0.00 0.01 0.00 81 1016.1
20260831055011 74 199 5.0 14.0 0.00 0.01 0.00 82 1016.1
20260831054558 83 137 0.0 4.0 0.00 0.00 0.00 40 1014.4
20260831054523 74 227 3.0 11.0 0.00 0.01 0.00 83 1016.2
20260831054004 74 184 5.0 11.0 0.00 0.01 0.00 83 1016.3
20260831053503 74 198 4.0 8.0 0.00 0.01 0.00 83 1016.3
20260831053044 82 130 1.0 5.0 0.00 0.00 0.00 40 1014.4
20260831053004 74 157 3.0 7.0 0.00 0.01 0.00 84 1016.3
20260831052504 74 192 2.0 7.0 0.00 0.01 0.00 85 1016.2
20260831052004 74 186 3.0 8.0 0.00 0.01 0.00 85 1016.2
20260831051543 82 107 3.0 5.0 0.00 0.00 0.00 39 1014.3
20260831051511 74 221 2.0 8.0 0.00 0.01 0.00 86 1016.2
20260831051003 74 184 2.0 7.0 0.00 0.01 0.00 88 1016.2
20260831050503 73 209 3.0 6.0 0.00 0.01 0.00 88 1016.2
20260831050036 82 123 2.0 3.0 0.00 0.00 0.00 38 1014.3
20260831050017 73 201 3.0 6.0 0.00 0.01 0.00 89 1016.3
20260831045508 73 204 3.0 4.0 0.00 0.01 0.01 90 1016.5
20260831045007 73 204 2.0 4.0 0.00 0.01 0.01 90 1016.6
20260831044534 82 119 1.0 3.0 0.00 0.00 0.00 37 1014.1
20260831044517 73 202 1.0 3.0 0.00 0.01 0.01 90 1016.8
20260831044009 73 116 0.0 2.0 0.00 0.01 0.01 90 1016.8
20260831043516 73 136 0.0 3.0 0.00 0.01 0.01 90 1016.9
20260831043033 83 119 1.0 4.0 0.00 0.00 0.00 37 1014.1
20260831043003 73 150 0.0 3.0 0.00 0.01 0.01 90 1016.9
20260831042504 74 130 0.0 2.0 0.00 0.01 0.01 90 1016.9
20260831042003 74 103 0.0 2.0 0.00 0.01 0.01 90 1017.0
20260831041548 83 122 2.0 3.0 0.00 0.00 0.00 36 1014.0
20260831041509 74 103 0.0 2.0 0.00 0.01 0.01 90 1017.0
20260831041004 74 99 1.0 3.0 0.00 0.01 0.01 90 1017.1
20260831040504 74 100 1.0 3.0 0.00 0.01 0.01 90 1017.1
20260831040037 84 121 1.0 3.0 0.00 0.00 0.00 35 1013.9
20260831040010 74 101 1.0 3.0 0.00 0.01 0.01 90 1017.1
20260831035503 74 96 1.0 3.0 0.00 0.01 0.01 89 1017.1
20260831035007 74 96 1.0 3.0 0.00 0.01 0.01 89 1017.2
20260831034527 84 121 0.0 2.0 0.00 0.00 0.00 34 1013.6
20260831034514 75 119 0.0 2.0 0.00 0.01 0.01 89 1017.3
20260831034010 75 107 0.0 2.0 0.00 0.01 0.01 88 1017.2
20260831033510 75 107 1.0 2.0 0.00 0.01 0.01 88 1017.1
20260831033126 85 121 0.0 2.0 0.00 0.00 0.00 34 1013.5
20260831033020 75 104 1.0 4.0 0.00 0.01 0.01 88 1017.2
20260831032512 75 98 2.0 4.0 0.00 0.01 0.01 88 1017.2
20260831032012 75 95 0.0 2.0 0.00 0.01 0.01 88 1017.1
20260831031523 85 121 0.0 1.0 0.00 0.00 0.00 32 1013.5
20260831031503 75 95 0.0 2.0 0.00 0.01 0.01 88 1017.1
20260831031003 75 126 0.0 2.0 0.00 0.01 0.01 88 1017.0
20260831030503 75 126 1.0 2.0 0.00 0.01 0.01 88 1017.0
20260831030021 87 121 0.0 2.0 0.00 0.00 0.00 30 1013.4
20260831030007 75 126 0.0 2.0 0.00 0.01 0.01 88 1017.1
20260831025503 75 126 0.0 2.0 0.00 0.01 0.01 88 1017.2
20260831025003 75 126 0.0 2.0 0.00 0.01 0.01 88 1017.2
20260831024518 88 119 2.0 5.0 0.00 0.00 0.00 30 1013.2
20260831024514 76 174 0.0 4.0 0.00 0.01 0.01 88 1017.1
20260831024008 76 174 0.0 4.0 0.00 0.01 0.01 88 1017.1
20260831023509 76 184 0.0 4.0 0.00 0.01 0.01 88 1017.1
20260831023017 76 209 1.0 4.0 0.00 0.01 0.01 88 1017.2
20260831023015 89 107 5.0 8.0 0.00 0.00 0.00 29 1013.0
20260831022511 76 184 1.0 3.0 0.00 0.01 0.01 88 1017.1
20260831022011 76 200 0.0 4.0 0.00 0.01 0.01 88 1017.0
20260831021525 76 203 1.0 6.0 0.00 0.01 0.01 88 1016.9
20260831021512 89 111 5.0 7.0 0.00 0.00 0.00 28 1012.9
20260831021012 75 187 1.0 6.0 0.00 0.01 0.01 88 1017.0
20260831020503 75 200 1.0 6.0 0.00 0.01 0.01 89 1017.0
20260831020011 90 119 4.0 7.0 0.00 0.00 0.00 27 1012.6
20260831020004 75 295 2.0 7.0 0.00 0.01 0.01 89 1016.9
20260831015506 75 202 3.0 7.0 0.00 0.01 0.01 90 1016.9
20260831015003 75 198 1.0 3.0 0.00 0.01 0.01 90 1016.9
20260831014510 91 129 5.0 7.0 0.00 0.00 0.00 26 1012.3
20260831014008 75 190 0.0 3.0 0.00 0.01 0.01 90 1016.9
20260831013507 75 192 0.0 1.0 0.00 0.01 0.01 90 1016.7
20260831013016 76 115 0.0 2.0 0.00 0.01 0.01 89 1016.5
20260831013006 92 110 5.0 9.0 0.00 0.00 0.00 25 1012.2
20260831012508 76 115 0.0 3.0 0.00 0.01 0.01 89 1016.4